Regional Weather Roundup
Issued by NWS

Home | Current Version | Previous Version | Graphics & Text | Print | Product List | Glossary On
Versions: 1 2 3 4 5 6 7 8 9 10 11 12 13 14 15 16 17 18 19 20 21 22 23 24 25 26 27 28 29 30 31 32 33 34 35 36 37 38 39 40 41 42 43 44 45 46 47 48 49 50
000
ASUS43 KMKX 272311
RWRWI

WISCONSIN REGIONAL WEATHER ROUNDUP
NATIONAL WEATHER SERVICE MILWAUKEE/SULLIVAN WI
600 PM CDT WED JUL 27 2016

NOTE: "FAIR" INDICATES FEW OR NO CLOUDS BELOW 12,000 FEET WITH NO
SIGNIFICANT WEATHER AND/OR OBSTRUCTIONS TO VISIBILITY.

WIZ001-002-006>008-014>016-023>028-280000-
NORTHWEST WISCONSIN

CITY           SKY/WX    TMP DP  RH WIND       PRES   REMARKS
SUPERIOR ARPT  CLOUDY    61  59  95 NE9       30.02F
ASHLAND        LGT RAIN  63  62  97 NE8       30.02S
HAYWARD        LGT RAIN  65  62  90 NE6       29.99F
SIREN          CLOUDY    66  64  94 E5        29.97S
CUMBERLAND     LGT RAIN  64  63  94 NE6       29.96S
RICE LAKE      LGT RAIN  66  64  93 N8        29.97F
CHETEK         LGT RAIN  66  65  97 CALM      29.95F
LADYSMITH      TSTM      65  64  93 N9        30.00F
EAU CLAIRE     TSTM      69  67  93 VRB5G20   29.93R FOG
MENOMONIE      CLOUDY    69  69  98 CALM      29.96R
NEW RICHMOND   PTSUNNY   67  66  97 W3        29.95S
OSCEOLA        CLOUDY    67  67 100 N6        29.98R
$$

WIZ003>005-009-010-017-018-280000-
NORTH CENTRAL WISCONSIN

CITY           SKY/WX    TMP DP  RH WIND       PRES   REMARKS
MANITOWISH WTR RAIN      67  67 100 N3        30.01S
ARBOR VITAE    DRIZZLE   72  69  91 W5        30.02R
WOODRUFF       DRIZZLE   72  69  91 W5        30.02R
RHINELANDER    CLOUDY    71  66  84 E3        30.01S
EAGLE RIVER    CLOUDY    69  68  94 CALM      30.00F
LAND O LAKES   LGT RAIN  67  65  93 NE8       30.02F
PHILLIPS       RAIN      65  65  98 N3        29.99F
TOMAHAWK       CLOUDY    70  65  84 CALM      29.98F
MEDFORD        TSTM      65  65 100 CALM      29.99R
MERRILL        CLOUDY    74  69  84 CALM      29.97F
$$

WIZ029-030-035-036-043>047-280000-
CENTRAL WISCONSIN

CITY           SKY/WX    TMP DP  RH WIND       PRES   REMARKS
WAUSAU         LGT RAIN  74  70  87 E6        29.94S
MOSINEE        RAIN      73  70  88 SW6       29.97S
MARSHFIELD     CLOUDY    74  68  81 SE7       29.94S
STEVENS POINT  LGT RAIN  74  69  83 CALM      29.96S
WAUPACA        CLOUDY    80  68  66 SE5       29.96S HX  82
WAUTOMA        CLOUDY    76  69  79 S5        29.96S
WISC RAPIDS    TSTM      71  68  90 W9        29.96S FOG
CAMP DOUGLAS   PTSUNNY   79  70  73 SE8       29.92F HX  81
$$

WIZ011>013-019>022-031-037>040-048>050-280000-
NORTHEAST WISCONSIN

CITY           SKY/WX    TMP DP  RH WIND       PRES   REMARKS
ANTIGO         PTSUNNY   73  68  86 CALM      29.98F
SHAWANO        CLOUDY    78  69  73 E7        29.96F HX  81
OCONTO         CLOUDY    74  73  97 CALM      29.96F
STURGEON BAY   LGT RAIN  74  68  81 CALM      29.99S
GREEN BAY      CLOUDY    79  70  74 CALM      29.95F HX  82
MANITOWOC      CLOUDY    77  67  71 CALM      29.96S
APPLETON       PTSUNNY   77  64  65 VRB6      29.95S
CLINTONVILLE   CLOUDY    77  64  65 SE6       29.95F
OSHKOSH        CLOUDY    77  67  71 CALM      29.94F
$$

WIZ032>034-041-042-053>061-280000-
SOUTHWEST WISCONSIN

CITY           SKY/WX    TMP DP  RH WIND       PRES   REMARKS
LA CROSSE      CLOUDY    83  67  58 SW9       29.90F HX  85
SPARTA         MOSUNNY   81  68  65 SW3       29.92F HX  83
VIROQUA        CLOUDY    82  65  58 SW7       29.95S HX  83
BOSCOBEL       PTSUNNY   85  66  53 SW8       29.92F HX  87
PRAIRIE DU CHI CLOUDY    82  65  55 SW6       29.91F HX  84
PLATTEVILLE    CLOUDY    80  69  68 S5        29.94F HX  83
$$

WIZ056-057-062-063-064-067-068-280000-
SOUTH CENTRAL WISCONSIN

CITY           SKY/WX    TMP DP  RH WIND       PRES   REMARKS
REEDSBURG      MOSUNNY   80  71  74 NE5       29.92F HX  83
BARABOO/DELLS  PTSUNNY   80  69  70 E7        29.93F HX  82
LONE ROCK      MOSUNNY   83  67  58 S7        29.92F HX  85
MINERAL POINT  MOSUNNY   81  68  65 S5        29.94F HX  83
MADISON        PTSUNNY   82  69  64 E10       29.93F HX  85
MIDDLETON      SUNNY     83  69  64 E8        29.94S HX  86
WATERTOWN      SUNNY     79  68  67 E8        29.94F HX  82
MONROE         SUNNY     82  64  54 S5        29.94F HX  84
JANESVILLE     MOSUNNY   86  63  45 W3        29.92F HX  87
$$

WIZ051-052-058>065-066-070>072-280000-
SOUTHEAST WISCONSIN

CITY           SKY/WX    TMP DP  RH WIND       PRES   REMARKS
MILWAUKEE      CLOUDY    78  63  59 NE12      29.95F HX  80
WAUKESHA       SUNNY     77  64  65 NE9       29.97F
MILWAUKEE/TIMM SUNNY     79  61  53 E5        29.96F HX  80
RACINE         MOSUNNY   77  68  73 NE12      29.97F
BURLINGTON     MOSUNNY   80  67  63 NE8       29.94F HX  83
KENOSHA        MOSUNNY   82  69  64 NE13      29.94F HX  85
FOND DU LAC    CLOUDY    76  68  76 S5        29.94F
SHEBOYGAN      CLOUDY    71  67  87 E6        29.94F
WEST BEND      CLOUDY    72  66  83 CALM      29.95F
JUNEAU         CLOUDY    76  67  71 E6        29.96F
$$

LSZ147-162-280000-
LAKE SUPERIOR

STATION/POSITION TIME  TEMP    WIND        PRES    WAVE
                       AIR SEA DIR/SP/G            HT/PER
                 (UTC) (F)     (DEG/KT/KT) (MB)    (FT/S)
W MID LAKE BUOY  2250   62 60  110/  8/ 10 1015.5F   2/ 4
DEVILS ISLAND    2300   62      90/  8/  8 1016.7F
PORT WING        2140   65      30/  6/  7 1016.9S
SAXON HARBOR     2200   66      70/  6/ 11 1015.9S
$$

LMZ867-665-643>646-280000-
LAKE MICHIGAN

STATION/POSITION TIME  TEMP    WIND        PRES    WAVE
                       AIR SEA DIR/SP/G            HT/PER
                 (UTC) (F)     (DEG/KT/KT) (MB)    (FT/S)
CHAMBERS ISLAND  2200   74      80/  6/  8 1014.9R
S GREEN BAY BUOY 2200   75 75  190/  4/  6   N/A
N MID LAKE BUOY  2250   71 71  260/  6/  6 1014.1R   0
NORTHPORT PIER   2200   75     340/  4/  6 1014.6R
SISTER BAY       2221   75        CALM       N/A
ALGOMA LAKESHORE 2213             CALM       N/A
KEWAUNEE LAKESHO 2200   67     170/  7/  7 1014.5S
SHEBOYGAN LAKESH 2300   70      40/  5/  5 1013.9F
PORT WASHINGTON  2200   77     300/  6/ 10 1015.2F
ATWATER BUOY     2300   68 62   80/  8/ 10 1015.5F
MILWAUKEE LAKESH 2210   73      20/ 12/ 13   N/A
S MID LAKE BUOY  2250   77 78   40/  6/ 10 1013.4F   0
KENOSHA   LAKESH 2300   67      10/  9/ 14 1013.2F
$$

TC  - TEMPERATURE IN CELSIUS
VSB - VISIBILITY IN STATUTE MILES
WCI - WIND CHILL INDEX
HX  - HEAT INDEX





USA.gov is the U.S. government's official web portal to all federal, state and local government web resources and services.